Location: Unspecified
(0.0000°N, 0.0000°E)
Time: 20:40:28
(UTC+00:00)

SAUDISAT 1B - Visible Passes

Search period start: 27 February 2024 00:00
Search period end: 08 March 2024 00:00
Orbit: 572 x 646 km, 64.6° (Epoch: 27 February)

Date Brightness Start Highest point End Pass type
(mag) Time Alt. Az. Time Alt. Az. Time Alt. Az.
27 Feb 10.8 20:31:03 10° SW 20:32:21 18° SW 20:32:21 18° SW visible
28 Feb 9.6 19:06:28 10° SSE 19:09:50 21° ESE 19:10:18 21° ESE visible
28 Feb 11.3 20:46:12 10° WSW 20:47:18 14° W 20:47:18 14° W visible
29 Feb 8.5 19:19:26 10° S 19:23:46 52° ESE 19:25:28 33° NE visible
01 Mar 8.9 19:33:18 10° SSW 19:37:42 59° WNW 19:40:51 19° N visible
02 Mar 10.6 19:48:03 10° WSW 19:51:39 23° WNW 19:55:17 10° NNW visible
04 Mar 8.5 18:35:34 10° SSW 18:40:03 79° WNW 18:44:36 10° NNE visible
05 Mar 10.4 18:50:01 10° SW 18:53:58 30° WNW 18:57:59 10° N visible
06 Mar 11.1 05:18:40 10° NNE 05:21:42 18° ENE 05:24:43 10° ESE visible
06 Mar 11.5 19:05:56 10° W 19:07:56 13° WNW 19:09:56 10° NW visible
07 Mar 9.4 05:31:26 10° N 05:35:38 46° ENE 05:39:46 10° SE visible
